sat.trackr.live / text

‹ back to catalog

STARLINK-1557

NORAD 46034 · 2020-055H

PAYLOAD ACTIVE UNKNOWN

§ Identity

Operator
Country
US
Launch date
2020-08-07
Launch site
AFETR
Launch vehicle
Mass (kg)
RCS (m²)

Purposes: comms

External: N2YO · Heavens-Above · Gunter

§ Orbital elements

Epoch: 2026-09-09T00:12:50.560128Z

Period
94.01 min
Inclination
53.1624°
Eccentricity
0.0001121
Mean motion
15.31706527 rev/d
Perigee alt
470.0 km
Apogee alt
471.5 km
Semi-major
6,848.9 km
B*
5.2485e-5
RAAN
354.3685°
Arg perigee
85.5571°
Mean anomaly
274.5558°
Rev number
33,694

§ Raw data

STARLINK-15571 46034U 20055H   26252.00891852  .00001264  00000+0  52485-4 0  99992 46034  53.1624 354.3685 0001121  85.5571 274.5558 15.31706527336948

JSON: /api/v1/satellites/46034 · /tle

For live sub-satellite position, see the globe view (requires WebGL).

§ Visibility from observer

Set your observer location to see the next 7 days of passes ≥ 10°. The values pass through the URL so the page stays shareable.

No JS? Fill the form by hand. The geolocation button needs JavaScript.